Location: Unspecified
(48.7670°N, 0.0000°E)
Time: 03:55:49
(UTC+00:00)

Vanguard 2 Rocket - Pass Details

Date: 03 October 2020
Orbit: 554 x 3326 km, 32.9° (Epoch: 26 October)

Event Time Altitude Azimuth Distance (km) Brightness Sun altitude
Exits shadow 02:41:00 41° 203° (SSW) 3,970 9.6 -32.3°
Maximum altitude 02:45:56 47° 171° (S) 3,903 9.8 -31.7°
Drops below altitude 10° 03:04:24 10° 107° (ESE) 6,132 11.6 -29.1°
Sets 03:09:06 0° 102° (ESE) 6,970 12.1 -28.4°
